This is the latest recevied weather packets stored in our database for station/object W0WC. If no packets are shown the sender has not sent any weather packets the latest 10 day(s).
| Time | Temp. | Humidity | Pressure | Rain* | Wind** | Luminosity | Snow |
|---|---|---|---|---|---|---|---|
| 1787878210 | 28.89° C | 43% | 1016.8 hPa | 0 mm | - | 5 W/m² | - |
| 1787877905 | 29.44° C | 43% | 1016.8 hPa | 0 mm | - | 8 W/m² | - |
| 1787877600 | 29.44° C | 42% | 1016.9 hPa | 0 mm | - | 12 W/m² | - |
| 1787877295 | 30° C | 42% | 1017 hPa | 0 mm | - | 15 W/m² | - |
| 1787876995 | 30° C | 41% | 1017 hPa | 0 mm | - | 19 W/m² | - |
| 1787876691 | 30.56° C | 40% | 1016.9 hPa | 0 mm | - | 24 W/m² | - |
| 1787876386 | 30.56° C | 39% | 1017 hPa | 0 mm | - | 26 W/m² | - |
| 1787876084 | 30.56° C | 38% | 1017 hPa | 0 mm | - | 35 W/m² | - |
| 1787875780 | 31.11° C | 36% | 1016.8 hPa | 0 mm | - | 38 W/m² | - |
| 1787875479 | 31.11° C | 36% | 1016.9 hPa | 0 mm | - | 39 W/m² | - |
| 1787875172 | 31.11° C | 35% | 1017 hPa | 0 mm | - | 58 W/m² | - |
| 1787874867 | 31.67° C | 34% | 1017 hPa | 0 mm | - | 68 W/m² | - |
| 1787874566 | 31.67° C | 33% | 1017.2 hPa | 0 mm | - | 77 W/m² | - |
| 1787874260 | 31.67° C | 33% | 1017 hPa | 0 mm | - | 86 W/m² | - |
| 1787873956 | 31.67° C | 32% | 1017.1 hPa | 0 mm | - | 96 W/m² | - |
| 1787873655 | 31.67° C | 32% | 1017 hPa | 0 mm | - | 107 W/m² | - |
| 1787873350 | 32.22° C | 32% | 1017.2 hPa | 0 mm | - | 118 W/m² | - |
| 1787873049 | 32.22° C | 32% | 1017 hPa | 0 mm | - | 130 W/m² | - |
| 1787872744 | 32.22° C | 32% | 1017 hPa | 0 mm | - | 141 W/m² | - |
| 1787872440 | 32.22° C | 31% | 1017.2 hPa | 0 mm | - | 154 W/m² | - |
| 1787872140 | 32.78° C | 31% | 1017.2 hPa | 0 mm | - | 165 W/m² | - |
| 1787871839 | 32.22° C | 31% | 1017.1 hPa | 0 mm | - | 178 W/m² | - |
| 1787871534 | 32.22° C | 32% | 1017.3 hPa | 0 mm | - | 192 W/m² | - |
| 1787871230 | 32.78° C | 33% | 1017.2 hPa | 0 mm | - | 204 W/m² | - |
| 1787870924 | 32.78° C | 33% | 1017.4 hPa | 0 mm | - | 219 W/m² | - |
* Rain latest hour (hover to see other rain measurements)
** Current wind speed in m/s (hover to see current wind gust speed)